Location: Most
(50.5133°N, 13.6207°E)
Time: 19:40:31
(UTC+02:00)

ISS - Pass Details

Date: 19 May 2019
Orbit: 407 x 410 km, 51.6° (Epoch: 23 May)

Event Time Altitude Azimuth Distance (km) Brightness Sun altitude
Rises 23:37:12 0° 257° (WSW) 2,331 0.1 -17.2°
Reaches altitude 10° 23:39:17 10° 258° (WSW) 1,472 -0.9 -17.3°
Maximum altitude 23:42:35 85° 347° (NNW) 416 -3.9 -17.5°
Drops below altitude 10° 23:45:54 10° 77° (ENE) 1,477 -1.1 -17.7°
Sets 23:48:00 0° 78° (ENE) 2,340 0.0 -17.8°
